This is the latest recevied weather packets stored in our database for station/object K5OLV. If no packets are shown the sender has not sent any weather packets the latest 10 day(s).
| Time | Temp. | Humidity | Pressure | Rain* | Wind** | Luminosity | Snow |
|---|---|---|---|---|---|---|---|
| 1788611155 | 23.33° C | 94% | 1014.4 hPa | 0 mm | - | 54 W/m² | - |
| 1788610855 | 23.33° C | 94% | 1014.4 hPa | 0 mm | - | 51 W/m² | - |
| 1788610550 | 22.78° C | 94% | 1014.5 hPa | 0 mm | - | 43 W/m² | - |
| 1788610245 | 22.78° C | 93% | 1014.4 hPa | 0 mm | - | 39 W/m² | - |
| 1788609944 | 22.78° C | 93% | 1014.3 hPa | 0 mm | - | 35 W/m² | - |
| 1788609640 | 22.78° C | 93% | 1014.2 hPa | 0 mm | - | 30 W/m² | - |
| 1788609338 | 22.78° C | 93% | 1014.1 hPa | 0 mm | - | 27 W/m² | - |
| 1788609033 | 22.78° C | 93% | 1014 hPa | 0 mm | - | 23 W/m² | - |
| 1788608732 | 22.78° C | 93% | 1013.6 hPa | 0 mm | - | 19 W/m² | - |
| 1788608432 | 22.78° C | 92% | 1014 hPa | 0 mm | - | 15 W/m² | - |
| 1788608127 | 22.78° C | 92% | 1014 hPa | 0 mm | - | 11 W/m² | - |
| 1788607822 | 22.78° C | 92% | 1013.6 hPa | 0 mm | - | 8 W/m² | - |
| 1788607518 | 22.78° C | 91% | 1013.9 hPa | 0 mm | - | 5 W/m² | - |
| 1788607213 | 22.78° C | 91% | 1013.6 hPa | 0 mm | - | 3 W/m² | - |
| 1788606913 | 22.78° C | 91% | 1013.3 hPa | 0 mm | - | 0 W/m² | - |
| 1788606607 | 22.78° C | 90% | 1013.3 hPa | 0 mm | - | 0 W/m² | - |
| 1788606306 | 22.78° C | 90% | 1013.4 hPa | 0 mm | - | 0 W/m² | - |
| 1788606001 | 23.33° C | 90% | 1013.3 hPa | 0 mm | - | 0 W/m² | - |
| 1788605695 | 23.33° C | 89% | 1013.1 hPa | 0 mm | - | 0 W/m² | - |
| 1788605395 | 23.33° C | 89% | 1013.3 hPa | 0 mm | - | 0 W/m² | - |
| 1788605091 | 23.33° C | 90% | 1013.2 hPa | 0 mm | - | 0 W/m² | - |
| 1788604785 | 23.33° C | 89% | 1013.2 hPa | 0 mm | - | 0 W/m² | - |
| 1788604480 | 23.33° C | 89% | 1013.3 hPa | 0 mm | - | 0 W/m² | - |
| 1788604177 | 23.33° C | 89% | 1013.1 hPa | 0 mm | - | 0 W/m² | - |
| 1788603872 | 23.33° C | 89% | 1013.2 hPa | 0 mm | - | 0 W/m² | - |
* Rain latest hour (hover to see other rain measurements)
** Current wind speed in m/s (hover to see current wind gust speed)